Location: ???????
(55.3754°N, 39.3545°E)
Time: 06:21:28
(UTC+00:00)

Cosmos 1864 Rocket - Pass Details

Date: 14 April 2026
Orbit: 951 x 995 km, 82.9° (Epoch: 10 May)

Event Time Altitude Azimuth Distance (km) Brightness Sun altitude
Exits shadow 21:23:07 56° 198° (SSW) 1,161 4.5 -25.0°
Maximum altitude 21:24:35 86° 282° (WNW) 999 4.4 -25.0°
Drops below altitude 10° 21:30:58 10° 11° (N) 2,770 7.9 -24.9°
Sets 21:33:31 0° 12° (NNE) 3,726 8.9 -24.9°
